TimeEDT,TemperatureF,Dew PointF,Humidity,Sea Level PressureIn,VisibilityMPH,Wind Direction,Wind SpeedMPH,Gust SpeedMPH,PrecipitationIn,Events,Conditions,WindDirDegrees,DateUTC
12:15 AM,59.9,58.1,94,30.24,0.5,Calm,Calm,-,N/A,Fog,Fog,0,2013-06-20 04:15:00
12:35 AM,60.6,58.6,93,30.24,7.0,Calm,Calm,-,N/A,,Scattered Clouds,0,2013-06-20 04:35:00
12:55 AM,57.9,55.9,93,30.24,0.2,Calm,Calm,-,N/A,Fog,Fog,0,2013-06-20 04:55:00
1:15 AM,58.1,56.3,94,30.24,0.2,Calm,Calm,-,N/A,Fog,Fog,0,2013-06-20 05:15:00
1:35 AM,57.4,55.6,94,30.24,0.5,Calm,Calm,-,N/A,Fog,Fog,0,2013-06-20 05:35:00
1:55 AM,58.5,56.5,93,30.24,1.8,Calm,Calm,-,N/A,,Overcast,0,2013-06-20 05:55:00
2:15 AM,58.5,56.5,93,30.24,3.0,Calm,Calm,-,N/A,,Overcast,0,2013-06-20 06:15:00
2:35 AM,57.7,55.9,94,30.23,0.5,Calm,Calm,-,N/A,Fog,Fog,0,2013-06-20 06:35:00
2:55 AM,58.5,56.7,94,30.23,2.5,Calm,Calm,-,N/A,,Mostly Cloudy,0,2013-06-20 06:55:00
3:15 AM,57.6,55.8,94,30.23,0.2,Calm,Calm,-,N/A,Fog,Fog,0,2013-06-20 07:15:00
3:35 AM,58.6,56.8,94,30.24,2.0,Calm,Calm,-,N/A,,Overcast,0,2013-06-20 07:35:00
3:55 AM,58.6,56.8,94,30.24,0.2,Calm,Calm,-,N/A,Fog,Fog,0,2013-06-20 07:55:00
4:15 AM,58.6,56.8,94,30.24,0.5,Calm,Calm,-,N/A,Fog,Fog,0,2013-06-20 08:15:00
4:35 AM,58.5,56.7,94,30.25,1.0,Calm,Calm,-,N/A,,Overcast,0,2013-06-20 08:35:00
4:55 AM,59.2,57.4,94,30.25,0.8,Calm,Calm,-,N/A,,Overcast,0,2013-06-20 08:55:00
5:15 AM,59.0,57.2,94,30.26,2.0,Calm,Calm,-,N/A,,Overcast,0,2013-06-20 09:15:00
5:35 AM,59.9,58.1,94,30.26,3.0,Calm,Calm,-,N/A,,Overcast,0,2013-06-20 09:35:00
5:55 AM,60.1,58.3,94,30.27,3.0,Calm,Calm,-,N/A,,Overcast,0,2013-06-20 09:55:00
6:15 AM,60.1,58.1,93,30.27,0.5,Calm,Calm,-,N/A,Fog,Fog,0,2013-06-20 10:15:00
6:35 AM,60.1,58.3,94,30.27,0.2,Calm,Calm,-,N/A,Fog,Fog,0,2013-06-20 10:35:00
6:55 AM,60.4,58.6,94,30.29,0.5,Calm,Calm,-,N/A,Fog,Fog,0,2013-06-20 10:55:00
7:15 AM,60.4,58.6,94,30.29,0.2,Calm,Calm,-,N/A,Fog,Fog,0,2013-06-20 11:15:00
7:35 AM,60.8,59.0,94,30.29,0.5,Calm,Calm,-,N/A,Fog,Fog,0,2013-06-20 11:35:00
7:55 AM,61.2,59.4,94,30.30,0.8,Calm,Calm,-,N/A,,Overcast,0,2013-06-20 11:55:00
8:15 AM,61.2,59.4,94,30.31,1.5,Calm,Calm,-,N/A,,Overcast,0,2013-06-20 12:15:00
8:35 AM,61.7,59.9,94,30.31,1.0,Calm,Calm,-,N/A,,Overcast,0,2013-06-20 12:35:00
8:55 AM,62.6,60.4,93,30.32,2.0,Calm,Calm,-,N/A,,Overcast,0,2013-06-20 12:55:00
9:15 AM,63.7,61.5,93,30.32,4.0,ESE,3.5,-,N/A,,Overcast,120,2013-06-20 13:15:00
9:35 AM,64.9,61.2,88,30.32,7.0,ESE,4.6,-,N/A,,Overcast,120,2013-06-20 13:35:00
9:55 AM,63.9,60.4,89,30.32,7.0,Calm,Calm,-,N/A,,Overcast,0,2013-06-20 13:55:00
10:15 AM,65.5,60.1,83,30.32,10.0,ESE,4.6,-,N/A,,Mostly Cloudy,110,2013-06-20 14:15:00
10:35 AM,67.3,60.1,78,30.32,10.0,ESE,6.9,-,N/A,,Overcast,120,2013-06-20 14:35:00
10:55 AM,67.6,59.4,75,30.32,10.0,ESE,4.6,-,N/A,,Mostly Cloudy,110,2013-06-20 14:55:00
11:15 AM,68.9,59.7,72,30.32,10.0,ESE,5.8,-,N/A,,Overcast,110,2013-06-20 15:15:00
11:35 AM,69.4,59.4,70,30.33,10.0,SSE,4.6,-,N/A,,Mostly Cloudy,150,2013-06-20 15:35:00
11:55 AM,68.7,59.0,71,30.33,10.0,Calm,Calm,-,N/A,,Scattered Clouds,0,2013-06-20 15:55:00
12:15 PM,69.1,59.2,71,30.33,10.0,SSE,3.5,-,N/A,,Mostly Cloudy,160,2013-06-20 16:15:00
12:35 PM,69.6,58.8,68,30.33,10.0,SE,5.8,-,N/A,,Mostly Cloudy,130,2013-06-20 16:35:00
12:55 PM,69.6,59.4,70,30.32,10.0,SSE,3.5,-,N/A,,Overcast,150,2013-06-20 16:55:00
1:15 PM,69.4,59.9,72,30.32,10.0,SE,4.6,-,N/A,,Overcast,140,2013-06-20 17:15:00
1:35 PM,70.7,59.4,67,30.32,10.0,ESE,9.2,-,N/A,,Mostly Cloudy,120,2013-06-20 17:35:00
1:55 PM,69.1,58.8,70,30.32,10.0,SE,6.9,-,N/A,,Mostly Cloudy,140,2013-06-20 17:55:00
2:15 PM,69.1,58.8,70,30.32,10.0,ESE,6.9,-,N/A,,Overcast,120,2013-06-20 18:15:00
2:35 PM,70.3,60.4,71,30.32,10.0,ESE,5.8,-,N/A,,Overcast,120,2013-06-20 18:35:00
2:55 PM,68.7,59.4,72,30.32,10.0,SSE,5.8,-,N/A,,Overcast,150,2013-06-20 18:55:00
3:15 PM,71.8,60.3,67,30.31,10.0,SE,6.9,-,N/A,,Mostly Cloudy,130,2013-06-20 19:15:00
3:35 PM,70.5,60.6,71,30.31,10.0,ESE,8.1,-,N/A,,Overcast,120,2013-06-20 19:35:00
3:55 PM,71.2,59.7,67,30.31,10.0,SE,5.8,-,N/A,,Overcast,130,2013-06-20 19:55:00
4:15 PM,68.4,59.5,73,30.31,10.0,SE,5.8,16.1,N/A,,Overcast,130,2013-06-20 20:15:00
4:35 PM,68.7,59.0,71,30.31,10.0,SE,5.8,-,N/A,,Mostly Cloudy,130,2013-06-20 20:35:00
4:55 PM,68.9,59.5,72,30.31,10.0,SE,3.5,-,N/A,,Scattered Clouds,130,2013-06-20 20:55:00
5:15 PM,69.8,59.0,68,30.30,10.0,SE,4.6,-,N/A,,Clear,140,2013-06-20 21:15:00
5:35 PM,70.2,59.7,69,30.30,10.0,ESE,8.1,-,N/A,,Mostly Cloudy,120,2013-06-20 21:35:00
5:55 PM,68.2,59.5,74,30.30,10.0,SE,4.6,-,N/A,,Overcast,140,2013-06-20 21:55:00
6:15 PM,68.0,59.0,73,30.30,10.0,ESE,5.8,-,N/A,,Mostly Cloudy,110,2013-06-20 22:15:00
6:35 PM,69.1,59.0,70,30.30,10.0,SE,6.9,-,N/A,,Mostly Cloudy,130,2013-06-20 22:35:00
6:55 PM,66.6,58.3,75,30.30,10.0,SE,4.6,-,N/A,,Scattered Clouds,140,2013-06-20 22:55:00
7:15 PM,66.9,58.8,75,30.31,10.0,ESE,3.5,-,N/A,,Clear,120,2013-06-20 23:15:00
7:35 PM,66.2,58.8,77,30.31,10.0,SE,4.6,-,N/A,,Scattered Clouds,140,2013-06-20 23:35:00
7:55 PM,65.7,58.8,79,30.31,7.0,Calm,Calm,-,N/A,,Scattered Clouds,0,2013-06-20 23:55:00
8:15 PM,64.9,59.0,81,30.31,7.0,Calm,Calm,-,N/A,,Scattered Clouds,0,2013-06-21 00:15:00
8:35 PM,64.2,59.0,83,30.31,5.0,Calm,Calm,-,N/A,,Haze,0,2013-06-21 00:35:00
8:55 PM,64.2,59.5,85,30.31,5.0,Calm,Calm,-,N/A,,Clear,0,2013-06-21 00:55:00
9:15 PM,63.7,59.7,87,30.31,7.0,Calm,Calm,-,N/A,,Scattered Clouds,0,2013-06-21 01:15:00
9:35 PM,64.0,59.7,86,30.32,7.0,Calm,Calm,-,N/A,,Mostly Cloudy,0,2013-06-21 01:35:00
9:55 PM,63.5,59.5,87,30.33,7.0,Calm,Calm,-,N/A,,Mostly Cloudy,0,2013-06-21 01:55:00
10:15 PM,64.6,59.5,84,30.34,7.0,Calm,Calm,-,N/A,,Mostly Cloudy,0,2013-06-21 02:15:00
10:35 PM,63.7,59.4,86,30.35,7.0,Calm,Calm,-,N/A,,Overcast,0,2013-06-21 02:35:00
10:55 PM,63.7,59.5,86,30.35,7.0,Calm,Calm,-,N/A,,Scattered Clouds,0,2013-06-21 02:55:00
11:15 PM,63.1,59.4,87,30.35,7.0,Calm,Calm,-,N/A,,Clear,0,2013-06-21 03:15:00
11:35 PM,62.6,59.2,89,30.35,7.0,Calm,Calm,-,N/A,,Scattered Clouds,0,2013-06-21 03:35:00
11:55 PM,61.7,59.2,91,30.35,4.0,Calm,Calm,-,N/A,,Scattered Clouds,0,2013-06-21 03:55:00